Probability
0 13 32 35 39 45 48 48 48 45 48 52 52 48 45 42 39 45 45 42 48 48 45 45 45 42 35 29 26 19 29 26 19 13 16 23 23 13 16 16 6 3 19
3 13 32 35 39 42 45 48 52 48 45 52 52 52 45 48 45 42 42 42 48 48 52 42 35 29 26 19 19 16 19 16 10 10 3 10 13 13 10 16 13 6 13
6 13 26 32 35 35 42 42 45 52 52 48 48 52 45 48 48 42 42 35 39 45 35 39 39 29 23 16 19 16 13 13 6 6 3 0 3 13 10 13 16 13 13
10 19 19 29 35 32 35 39 39 48 48 45 45 42 42 42 45 39 35 35 35 39 32 29 23 23 19 19 23 16 13 3 3 3 0 0 0 10 10 10 13 13 10
10 16 16 23 29 29 29 29 29 39 39 39 42 39 39 39 42 39 39 39 39 35 26 19 23 19 19 19 23 19 6 3 3 0 0 0 0 10 13 6 3 10 10
10 16 13 23 26 23 26 26 29 32 32 35 35 39 39 39 39 39 39 39 35 32 26 23 26 23 23 23 19 10 3 3 0 0 0 0 0 3 6 3 3 6 6
6 10 10 13 23 23 19 19 23 32 29 29 26 35 35 35 35 32 39 35 35 32 29 23 26 26 26 19 10 6 3 0 0 0 0 0 0 3 3 3 6 6 6
10 10 10 13 19 19 19 16 19 26 29 23 19 29 32 32 32 32 35 35 29 29 29 29 26 19 23 16 6 0 0 0 0 0 0 0 0 6 3 3 6 6 3
10 6 6 10 10 10 13 16 16 19 19 23 23 26 26 32 29 29 29 29 32 29 29 29 23 16 13 13 0 0 0 0 0 0 0 0 0 6 3 3 6 6 3
6 6 6 6 6 6 10 10 13 16 16 13 16 19 23 19 23 23 23 26 29 26 32 26 19 13 13 10 6 0 0 0 0 0 0 0 0 3 3 3 3 3 3
6 6 6 6 6 6 10 10 10 10 10 6 6 3 6 10 10 10 13 13 19 23 16 19 19 13 6 0 0 0 0 0 0 0 0 0 0 3 3 3 3 3 3
6 6 6 6 6 6 3 6 6 6 3 3 0 0 0 0 0 6 6 6 3 6 3 0 0 3 0 0 0 0 0 0 0 0 0 0 0 3 3 3 3 3 6
3 6 6 6 6 3 3 3 3 6 6 0 0 0 0 0 0 0 0 0 0 0 0 0 0 0 0 0 0 0 0 0 0 0 0 0 3 3 0 3 0 0 6
3 3 6 6 6 3 3 3 3 3 3 3 0 0 0 0 0 0 0 0 0 0 0 0 0 0 0 0 0 0 0 0 0 0 0 0 0 0 0 3 0 0 0
3 3 3 6 6 6 3 3 0 3 3 0 0 0 0 0 0 0 0 0 0 0 0 0 0 0 0 0 0 0 0 0 0 0 0 0 0 0 3 0 0 0 0
3 3 3 6 6 6 0 0 3 0 3 0 0 0 0 0 0 0 0 0 0 0 0 0 0 0 0 0 0 0 0 0 0 0 0 0 0 0 0 0 0 0 0
3 10 6 3 6 3 0 0 0 0 0 0 0 0 0 0 0 0 0 0 0 3 0 0 0 0 0 0 0 0 0 0 0 0 0 0 0 0 0 0 0 0 0
3 6 6 6 3 3 0 0 0 0 0 0 0 0 0 0 0 0 0 0 0 0 0 0 0 0 0 0 0 0 0 0 0 0 0 0 0 0 0 0 0 0 0
3 3 6 3 3 3 0 0 0 0 0 0 0 0 0 0 0 0 0 0 0 0 0 0 0 0 0 0 0 0 0 0 0 0 0 0 0 0 0 0 0 0 0
3 3 6 3 3 0 0 0 0 0 0 0 0 0 0 0 0 0 0 0 0 0 0 0 0 0 0 0 0 0 0 0 0 0 0 0 0 0 0 0 0 0 0
3 3 3 3 0 0 0 0 0 0 0 0 0 0 0 0 0 0 0 0 0 0 0 0 0 0 0 0 0 0 0 0 0 0 0 0 0 0 0 0 0 0 0
3 3 3 3 0 0 0 0 0 0 0 0 0 0 0 0 0 0 0 0 0 0 0 0 0 0 0 0 0 0 0 0 0 0 0 0 0 0 0 0 0 0 0
3 3 3 3 0 0 0 0 0 0 0 0 0 0 0 0 0 0 0 0 0 0 0 0 0 0 0 0 0 0 0 0 0 0 0 0 0 0 0 0 0 0 0
0 3 3 3 3 0 0 0 0 0 0 0 0 0 0 0 0 0 0 0 0 0 0 0 0 0 0 0 0 0 0 0 0 0 0 0 0 0 0 0 0 0 0
0 0 0 0 0 0 0 0 0 0 0 0 0 0 0 0 0 0 0 0 0 0 0 0 0 0 0 0 0 0 0 0 0 0 0 0 0 0 0 0 0 0 0
0 0 0 0 0 0 0 0 0 0 0 0 0 0 0 0 0 0 0 0 0 0 0 0 0 0 0 0 0 0 0 0 0 0 0 0 0 0 0 0 0 0 0
Height
5833 5834 5835 5835 5835 5836 5837 5837 5838 5839 5840 5841 5841 5842 5843 5844 5844 5845 5846 5847 5848 5848 5849 5849 5850 5850 5851 5851 5851 5852 5852 5853 5853 5853 5853 5853 5853 5853 5853 5853 5853 5854 5854
5831 5831 5832 5833 5833 5834 5834 5835 5836 5837 5838 5839 5840 5840 5841 5842 5843 5844 5845 5846 5846 5847 5848 5848 5849 5850 5850 5850 5851 5851 5852 5852 5852 5853 5853 5853 5853 5853 5853 5853 5853 5854 5854
5828 5828 5829 5829 5830 5831 5832 5832 5833 5834 5835 5836 5837 5838 5839 5840 5841 5842 5843 5844 5845 5846 5846 5847 5848 5849 5849 5850 5850 5851 5851 5851 5852 5852 5852 5853 5853 5853 5853 5853 5853 5853 5854
5824 5825 5825 5826 5827 5827 5828 5829 5830 5831 5832 5833 5834 5835 5837 5838 5839 5840 5841 5842 5843 5844 5845 5845 5846 5847 5848 5849 5849 5850 5850 5851 5851 5851 5852 5852 5852 5852 5852 5853 5853 5853 5853
5820 5820 5821 5822 5823 5823 5824 5825 5826 5827 5828 5829 5831 5832 5833 5835 5836 5837 5838 5839 5841 5842 5843 5844 5844 5845 5846 5847 5848 5848 5849 5850 5850 5851 5851 5851 5852 5852 5852 5852 5852 5852 5853
5816 5816 5817 5818 5818 5819 5820 5821 5822 5823 5824 5826 5827 5829 5830 5831 5833 5834 5835 5837 5838 5839 5840 5841 5842 5843 5844 5845 5846 5847 5848 5848 5849 5849 5850 5850 5851 5851 5851 5851 5851 5852 5852
5811 5812 5812 5813 5814 5815 5816 5817 5818 5819 5820 5821 5823 5824 5826 5827 5829 5830 5832 5833 5835 5836 5838 5839 5840 5841 5842 5843 5844 5845 5846 5846 5847 5848 5848 5849 5849 5849 5850 5850 5850 5851 5851
5806 5806 5807 5808 5809 5810 5811 5812 5813 5814 5815 5816 5818 5820 5822 5823 5825 5826 5828 5830 5831 5833 5834 5836 5837 5838 5839 5840 5841 5842 5844 5845 5845 5846 5847 5847 5848 5848 5848 5849 5849 5849 5850
5800 5800 5801 5802 5803 5804 5805 5806 5807 5809 5810 5812 5813 5815 5817 5818 5820 5822 5824 5825 5827 5829 5830 5832 5833 5835 5836 5837 5838 5840 5841 5842 5843 5844 5845 5845 5846 5846 5847 5847 5848 5848 5848
5793 5794 5795 5795 5796 5797 5798 5800 5801 5803 5804 5806 5808 5809 5811 5813 5815 5817 5818 5820 5822 5824 5826 5828 5829 5831 5833 5834 5835 5836 5838 5839 5840 5841 5842 5843 5844 5844 5845 5845 5845 5846 5846
5786 5787 5788 5788 5789 5790 5791 5792 5794 5796 5798 5800 5801 5803 5805 5807 5809 5811 5813 5815 5817 5819 5821 5823 5825 5826 5828 5830 5831 5833 5835 5836 5837 5838 5840 5841 5841 5842 5843 5843 5843 5844 5844
5779 5780 5780 5781 5781 5782 5783 5784 5786 5788 5790 5792 5794 5797 5799 5801 5803 5805 5807 5809 5811 5813 5816 5818 5820 5822 5824 5826 5827 5829 5831 5832 5834 5835 5836 5837 5838 5839 5840 5841 5841 5842 5842
5771 5772 5772 5773 5773 5774 5775 5777 5778 5781 5783 5785 5787 5789 5791 5793 5795 5798 5800 5803 5805 5808 5810 5812 5814 5817 5819 5821 5823 5825 5826 5828 5830 5831 5832 5834 5835 5836 5837 5838 5839 5839 5839
5762 5764 5764 5764 5765 5766 5767 5769 5770 5772 5774 5776 5779 5781 5783 5786 5788 5790 5793 5796 5799 5801 5804 5806 5809 5811 5813 5815 5818 5820 5821 5823 5825 5827 5828 5830 5831 5832 5833 5834 5835 5836 5837
5753 5755 5755 5755 5756 5757 5759 5760 5762 5764 5766 5768 5770 5772 5774 5777 5779 5781 5784 5788 5791 5794 5797 5800 5802 5805 5807 5809 5812 5814 5816 5818 5820 5822 5823 5825 5827 5828 5830 5831 5832 5833 5833
5744 5745 5746 5746 5747 5748 5750 5751 5753 5755 5757 5759 5761 5763 5765 5767 5770 5772 5775 5779 5782 5785 5788 5792 5795 5798 5801 5803 5805 5808 5810 5812 5814 5816 5818 5820 5822 5824 5825 5826 5828 5829 5830
5734 5735 5736 5737 5738 5739 5740 5742 5743 5745 5747 5749 5751 5753 5756 5758 5760 5763 5767 5770 5773 5777 5780 5784 5787 5791 5793 5796 5799 5801 5804 5806 5808 5811 5812 5815 5817 5819 5820 5822 5823 5824 5825
5723 5724 5725 5726 5728 5729 5731 5732 5733 5735 5737 5739 5741 5744 5746 5749 5752 5754 5757 5761 5764 5768 5771 5775 5779 5783 5786 5789 5792 5794 5797 5799 5802 5804 5806 5808 5811 5813 5815 5816 5818 5820 5821
5712 5713 5715 5716 5718 5719 5721 5722 5723 5725 5727 5729 5731 5734 5737 5740 5742 5745 5748 5751 5754 5758 5762 5766 5770 5774 5778 5781 5784 5786 5789 5792 5794 5797 5800 5802 5804 5807 5809 5811 5812 5814 5816
5701 5702 5704 5705 5707 5708 5710 5711 5713 5714 5716 5718 5721 5724 5727 5729 5732 5735 5739 5741 5745 5749 5753 5757 5761 5765 5769 5772 5775 5779 5781 5784 5787 5790 5793 5795 5797 5800 5802 5804 5806 5808 5810
5689 5691 5692 5694 5696 5697 5699 5700 5702 5704 5706 5708 5710 5713 5716 5719 5722 5725 5728 5731 5735 5739 5743 5747 5751 5756 5759 5763 5767 5770 5773 5776 5779 5782 5785 5788 5790 5793 5795 5797 5800 5802 5804
5677 5679 5680 5682 5683 5685 5687 5689 5691 5693 5695 5698 5699 5702 5705 5708 5711 5714 5718 5721 5725 5729 5733 5737 5742 5746 5749 5753 5757 5761 5764 5769 5771 5774 5777 5780 5782 5785 5787 5790 5792 5795 5797
5665 5666 5667 5669 5671 5673 5675 5677 5678 5680 5683 5686 5689 5691 5694 5697 5700 5704 5707 5710 5714 5718 5722 5727 5731 5736 5740 5744 5747 5751 5755 5759 5763 5766 5769 5771 5774 5777 5779 5782 5785 5787 5789
5652 5654 5655 5657 5659 5661 5662 5664 5666 5669 5672 5675 5678 5680 5683 5686 5689 5693 5696 5700 5704 5708 5712 5716 5721 5725 5729 5734 5738 5741 5745 5749 5753 5757 5760 5762 5765 5768 5771 5773 5776 5779 5781
5640 5641 5642 5644 5646 5648 5650 5652 5655 5657 5660 5663 5666 5669 5671 5674 5678 5681 5685 5689 5693 5697 5702 5706 5711 5715 5719 5723 5727 5731 5735 5739 5742 5746 5750 5753 5756 5758 5761 5764 5767 5769 5772
5627 5628 5629 5631 5633 5635 5638 5640 5642 5645 5648 5651 5654 5657 5660 5663 5667 5670 5674 5678 5682 5687 5691 5695 5700 5704 5708 5712 5716 5720 5724 5728 5731 5735 5739 5742 5745 5749 5751 5754 5757 5760 5762
Wind_Speed
13 13 12 12 11 11 11 11 10 10 10 10 9 8 8 8 8 8 7 7 6 6 6 5 5 4 4 3 3 3 2 1 1 1 0 1 0 0 0 1 1 2 2
15 15 14 14 13 13 13 13 12 12 12 11 11 10 10 9 9 8 9 8 7 7 6 6 6 5 5 5 5 4 3 3 2 2 1 1 1 1 0 0 1 1 1
16 16 16 15 15 15 15 14 14 14 13 13 12 12 11 11 10 10 9 9 9 8 8 8 7 7 6 6 6 5 5 4 4 3 2 2 2 1 1 0 0 1 1
17 18 18 18 17 17 16 16 16 15 14 14 14 14 13 13 13 12 11 11 10 10 10 9 9 8 8 7 7 6 6 5 5 4 3 3 3 2 2 1 1 1 1
20 20 19 19 19 19 18 18 17 17 16 16 15 16 15 15 15 14 13 13 12 12 12 11 11 10 9 9 9 8 7 7 6 5 5 4 4 3 3 3 3 2 2
21 21 21 21 20 21 21 20 19 19 18 18 17 17 17 17 17 16 16 15 14 14 13 13 13 12 11 11 10 10 9 8 8 7 6 5 5 5 4 4 4 4 3
22 22 22 22 22 22 22 22 22 21 20 19 19 19 18 18 18 18 17 17 16 15 15 15 14 14 13 12 12 11 11 10 9 8 8 7 7 6 6 5 5 5 5
23 23 23 23 24 24 23 23 23 23 22 21 20 20 20 20 19 19 19 18 18 17 17 16 16 15 15 14 14 13 12 11 11 10 9 8 8 8 7 7 6 6 6
26 25 25 25 26 26 26 25 25 25 25 24 23 22 22 22 22 21 21 21 20 19 19 18 18 17 17 16 16 15 14 13 12 12 11 10 9 9 8 8 8 7 7
28 28 28 28 28 28 28 27 27 27 27 26 25 25 24 24 24 24 24 23 22 22 21 21 20 20 19 18 17 17 16 15 14 13 13 12 11 10 9 9 8 8 8
29 29 29 29 29 29 29 29 28 29 29 28 28 27 27 27 26 26 26 25 24 24 23 23 23 22 21 20 19 18 18 17 16 16 15 14 13 12 11 10 10 9 8
31 30 30 30 30 31 31 31 31 30 30 30 30 30 30 29 29 28 28 27 26 26 26 25 24 23 23 22 21 20 20 19 18 18 17 16 15 14 13 12 12 11 10
32 32 32 32 32 32 33 33 33 32 32 33 32 31 31 31 31 30 30 29 29 28 27 26 25 25 24 24 23 22 21 21 20 20 19 18 17 16 15 14 13 13 12
33 33 33 33 33 34 34 34 34 34 34 34 34 33 33 33 33 32 31 31 30 30 29 28 27 26 26 25 25 24 24 24 22 21 20 20 19 18 17 16 15 15 14
35 35 34 35 34 34 35 36 36 35 35 35 36 35 35 34 34 34 34 33 32 32 32 31 30 29 28 27 26 25 26 25 25 23 23 22 21 20 19 18 17 16 15
37 37 37 37 36 36 37 37 37 37 36 36 36 36 36 35 35 35 35 35 35 34 34 33 32 31 30 29 28 27 27 27 26 25 24 24 23 22 20 19 18 18 17
38 38 39 40 39 38 38 38 38 38 38 37 38 37 37 36 36 36 36 36 36 35 35 34 33 33 32 30 30 29 29 28 27 27 25 25 24 24 23 22 21 20 19
39 39 40 40 41 40 39 39 39 39 39 39 39 39 39 38 37 37 37 38 38 37 36 36 35 35 33 32 31 31 30 30 29 28 28 27 26 25 25 24 23 22 21
41 40 41 41 41 42 42 41 41 40 41 41 41 40 40 40 39 38 38 39 39 39 38 38 37 36 35 34 33 33 32 32 31 30 29 29 28 27 27 25 25 24 23
42 42 42 43 42 42 42 42 42 41 41 41 42 41 41 41 40 40 40 40 40 40 39 38 38 37 36 36 34 34 34 33 33 31 31 30 30 30 29 28 27 26 25
43 43 44 44 44 43 43 43 43 42 42 42 42 42 43 42 42 42 41 41 41 41 41 40 40 39 38 38 37 36 35 35 34 33 32 32 32 31 31 30 29 28 28
43 43 44 44 45 45 44 44 44 44 44 43 43 43 44 43 42 41 42 42 42 42 42 42 42 42 40 39 38 37 37 36 36 35 34 33 33 32 32 32 31 31 30
43 43 44 46 45 45 45 44 44 44 44 44 45 44 44 44 44 43 43 42 42 42 43 43 42 42 42 41 39 39 39 37 36 36 35 35 34 34 34 34 33 33 32
44 43 45 46 45 45 45 44 44 43 44 45 45 45 45 45 45 45 45 43 43 43 44 43 43 42 42 42 41 41 40 38 37 37 37 36 36 35 35 35 34 35 34
44 44 44 45 45 46 46 45 45 44 44 44 45 45 46 46 45 45 45 45 45 45 45 45 45 44 43 43 43 43 42 40 39 39 39 38 38 37 37 36 36 36 36
44 44 44 45 45 45 45 45 45 44 44 44 44 44 45 46 46 46 45 45 46 47 47 46 45 45 44 44 44 44 44 43 41 41 41 40 39 39 38 38 37 38 38
Wind_Direction
258 260 261 262 262 263 264 262 258 253 251 250 251 253 254 255 253 250 250 251 253 264 269 268 263 255 247 253 254 245 244 245 256 293 223 181 171 86 51 65 77 97 94
261 261 262 262 262 262 263 261 258 254 253 253 253 254 255 254 253 253 252 249 252 255 262 262 259 258 252 255 256 249 243 242 249 258 274 244 224 227 252 62 94 118 94
262 262 264 264 263 262 262 260 257 254 253 254 254 255 255 253 252 251 251 250 250 252 254 256 257 256 253 255 254 250 242 242 247 250 255 258 250 239 221 197 186 163 106
262 264 266 265 264 263 260 258 256 255 254 254 254 255 254 252 251 250 250 251 252 251 252 253 252 253 252 250 251 249 242 238 242 243 246 254 254 248 234 242 241 231 232
263 264 265 265 263 261 260 258 254 254 254 254 255 254 252 251 249 248 249 251 252 251 251 251 251 251 250 248 250 248 246 242 244 246 248 248 257 260 258 257 250 250 264
263 263 263 263 263 261 259 258 254 253 253 253 252 250 249 249 249 248 247 250 250 250 249 249 250 249 249 246 245 246 245 244 244 248 249 250 254 257 255 253 251 249 256
263 262 262 262 261 260 259 258 256 254 253 253 253 252 251 250 249 247 246 247 249 249 248 249 250 249 247 247 244 243 244 246 243 246 249 252 252 254 255 255 254 252 257
262 262 262 261 261 260 258 257 257 254 254 254 254 252 252 252 251 249 245 245 247 247 248 250 250 250 249 247 245 244 243 245 243 244 248 252 251 251 255 256 260 260 261
262 262 261 261 260 260 259 258 257 256 255 255 254 252 251 251 250 249 247 246 245 246 247 248 249 248 250 249 247 245 244 244 244 244 247 250 252 254 255 257 258 260 262
260 261 261 261 260 260 259 259 258 257 256 255 254 252 252 252 251 250 249 247 246 246 246 246 247 248 249 249 247 245 244 245 246 245 247 249 251 252 254 255 257 259 260
260 261 261 261 261 259 259 258 257 256 256 255 254 253 252 251 251 250 250 249 247 246 246 246 246 246 247 248 247 245 245 245 246 247 246 248 250 252 254 255 253 252 255
260 261 261 261 261 259 258 257 256 255 255 255 254 253 252 251 250 249 248 248 247 246 245 245 246 247 247 247 247 247 247 245 246 247 247 247 248 250 252 253 253 254 257
262 262 262 262 261 259 258 256 256 255 254 255 254 253 253 252 250 248 247 247 247 246 245 244 244 245 247 248 246 247 249 246 245 247 247 246 246 248 249 251 251 254 258
262 263 264 263 261 259 257 256 256 255 254 254 254 254 253 252 251 248 247 246 245 245 244 243 243 246 247 247 247 247 249 249 244 244 245 244 244 246 248 249 251 253 257
260 261 263 262 260 259 257 256 256 255 255 255 255 254 253 252 251 249 247 246 245 245 245 245 245 246 247 247 248 248 248 250 246 243 243 243 243 244 247 250 252 254 256
261 261 261 261 261 259 257 255 254 255 255 255 255 254 253 253 251 248 247 247 245 245 245 244 244 245 245 246 247 248 248 248 245 243 243 242 243 244 247 249 251 253 255
261 261 261 261 260 260 259 257 255 255 255 255 254 253 253 252 251 249 247 246 245 244 244 244 244 243 244 245 247 247 246 246 246 243 243 242 243 244 245 248 251 252 253
260 259 259 259 259 258 258 258 256 255 255 254 252 251 252 251 250 250 248 246 245 243 242 243 244 243 245 245 246 246 245 245 244 243 242 242 242 243 244 246 249 250 251
261 260 258 259 259 258 258 258 257 256 255 253 251 250 250 249 249 249 247 246 244 243 243 243 243 243 244 246 245 244 244 244 243 243 243 243 243 243 243 245 247 248 250
261 260 259 258 259 259 258 257 256 254 253 252 251 250 249 249 247 247 246 245 244 243 242 242 242 242 244 246 245 243 244 244 243 243 243 243 243 243 243 244 246 247 249
261 261 260 258 257 258 257 256 254 253 252 251 251 249 249 248 248 246 245 244 243 242 241 241 240 241 244 245 244 243 245 245 245 244 244 244 245 244 244 244 246 247 249
261 261 259 259 258 258 257 257 255 254 252 251 251 250 249 248 247 246 245 244 243 241 240 240 240 241 242 244 244 244 245 245 245 246 246 245 245 245 244 244 246 247 249
261 261 260 260 258 257 256 256 255 253 251 250 250 250 250 248 247 246 245 243 241 240 240 240 240 240 242 244 245 245 245 245 245 245 246 246 247 247 246 245 246 247 248
261 261 260 259 258 257 256 256 255 253 252 251 250 249 249 248 246 246 245 242 240 240 238 238 239 240 242 243 244 245 246 246 247 246 245 246 247 247 247 246 246 247 248
262 261 259 258 257 257 256 256 255 254 253 251 250 249 248 247 247 246 244 242 241 240 239 239 237 239 241 243 244 245 246 246 247 247 246 246 246 247 246 246 246 247 249
262 261 260 258 257 256 256 255 255 254 252 251 250 248 248 247 246 245 244 242 241 240 239 239 239 240 242 243 245 245 246 247 247 247 247 246 246 247 248 247 247 248 249